DELTA 1 R/B, 1729

Orbit data source: Space-Track

DELTA 1 R/B, 1729 is space debris in LEO originally from a launch on Sat, 06 Nov 1965 UTC launched from the Air Force Eastern Test Range (AFETR). Debris objects in space refer to the collection of defunct objects orbiting the Earth. Examples of debris include non-operational satellites, rocket bodies, and fragments generated from explosions, collisions, or faulty payload assembly.

Loading next visibility...
Identifier
1729, 1965-089B
Orbit
LEO
Country
Flag of USUS
Related business
Manufacturer
ABL
Mission
Spacecraft
Bus & Motor
ALTAIR, Unknown motor
Mass
~60 kg wet, ~60 kg dry
Launch date (UTC)
1965-11-06 (60 years ago)
Launch vehicle
Unknown
Launch site
Air Force Eastern Test Range (AFETR)
Object type
Payload
Rocket body
Debris
Shape & HBR
Unknown
Radar Cross Section
Medium (>0.1 m² and <1 m²)

Expand to show TLE details & history
Last TLE update: 16 hours ago

TLE from 16 hours ago
0 DELTA 1 R/B
1  1729U 65089B   25353.63105211 -.00000088  00000-0 -68008-4 0  9998
2  1729  59.3913  57.0791 0718189  73.2906  86.6943 11.97567262628919
Epoch: 2025-12-19T15:08Z
TLE epoch observation values (Epoch: 2025-12-19T15:08:42.902Z)
Latitude
10.0986°
Longitude
-84.58834°
Altitude
1,700.542 km
Speed
7.023 km/s
True Right ascension
15h 24m 14s
True Declination
10° 02' 47"
Sunlit
Object was in daylight at epoch
Visualization orbit readout
Latitude
Unknown
Longitude
Unknown
Altitude
Unknown
Speed
Unknown
Apparent Right ascension
Unknown
Apparent Declination
Unknown
Sunlit
N/A
Visualization observer readout
Local Sidereal Time
06:15:03
Azimuth
Unknown
Elevation
Unknown
Doppler factor
Unknown
Orbital elements
Apogee altitude
2,270.693 km
Perigee altitude
1,111.636 km
Semi-major axis
8,069.301 km
Eccentricity
0.07182
Inclination
59.3913°
RAAN
57.0791°
Arg. of periapsis
73.2906°
True anomaly
94.92478°
Mean anomaly
86.6943°
Eccentric anomaly
90.80881°
Mean motion
2.99426 °/min
Orbital period
120.23 mins
BSTAR
-0.000068008
Loading maneuver chart data...
Computing Atmospheric mass density...
Loading historical data...
Loading historical data...
Loading historical data...
Loading historical data...
Loading historical data...
Loading historical data...
Loading historical data...

Documentation

Showing up to 5 results
|